Regional Weather Roundup
Issued by NWS

Home | Current Version | Previous Version | Graphics & Text | Print | Product List | Glossary On
Versions: 1 2 3 4 5 6 7 8 9 10 11 12 13 14 15 16 17 18 19 20 21 22 23 24 25 26 27 28 29 30 31 32 33 34 35 36 37 38 39 40 41 42 43 44 45 46 47 48 49 50
000
ASUS44 KMEG 250800
RWRTN
TENNESSEE HOURLY STATE WEATHER ROUNDUP
NATIONAL WEATHER SERVICE MEMPHIS TN
200 AM CST THU DEC 25 2014

TNZ002-004-019-021-049-052-054-088>092-250900-
WEST TENNESSEE

CITY           SKY/WX    TMP DP  RH WIND       PRES   REMARKS
MEMPHIS INTL   MOCLDY    42  34  73 SW5       30.03R
NWS MEMPHIS      N/A     42 N/A N/A MISG        N/A
JACKSON        CLOUDY    39  33  79 SW5       30.01R
DYERSBURG      CLOUDY    39  27  60 SW5       30.02R
UNION CITY     CLOUDY    37  36  93 W6        29.98R WCI  33
PARIS          CLOUDY    36  34  93 SW6       29.98R WCI  31
LEXINGTON      CLEAR     34  32  93 S3        30.00R
SAVANNAH       MOCLDY    37  36  93 SW3       30.03R
$$

TNZ008-025-027-028-033-062-065-066-250900-
NORTH MIDDLE TENNESSEE

CITY           SKY/WX    TMP DP  RH WIND       PRES   REMARKS
NASHVILLE      CLOUDY    41  35  79 SW7       29.98R
CLARKSVILLE    CLOUDY    40  35  83 W7        29.97R
COOKEVILLE     MOCLDY    39  36  87 W7        29.95R WCI  34
CROSSVILLE     CLOUDY    38  33  82 W8        29.94R WCI  32
$$

TNZ061-075-076-078-094-096-097-250900-
SOUTH MIDDLE TENNESSEE

CITY           SKY/WX    TMP DP  RH WIND       PRES   REMARKS
FAYETTEVILLE   CLOUDY    37  34  87 MISG      30.00R
TULLAHOMA      CLOUDY    37  36  93 W6        29.99R WCI  33
WINCHESTER     CLOUDY    39  36  87 W5        29.99R
SHELBYVILLE    CLOUDY    41  37  87 W7        30.00R
$$

TNZ017-018-042-046-047-250900-
NORTHEAST TENNESSEE

CITY           SKY/WX    TMP DP  RH WIND       PRES   REMARKS
TRI CITIES     MOCLDY    43  37  79 SW9       29.86R
ELIZABETHTON   CLOUDY    41  36  81 W7        29.85R
$$

TNZ012-013-036-069-073-074-250900-
CENTRAL EAST TENNESSEE

CITY           SKY/WX    TMP DP  RH WIND       PRES   REMARKS
KNOXVILLE      LGT RAIN  41  35  79 SW12      29.94R
OAK RIDGE      MOCLDY    42  34  73 W7        29.95R
GATLINBURG     CLOUDY    39  36  87 W7        29.93R WCI  34
$$

TNZ083-085-099-250900-
SOUTHEAST TENNESSEE

CITY           SKY/WX    TMP DP  RH WIND       PRES   REMARKS
CHATTANOOGA    CLOUDY    44  34  67 W6        29.99R
$$

SKY/WX REPORTED AS FAIR MEANS FEW OR NO CLOUDS BELOW
12 THOUSAND FEET.



USA.gov is the U.S. government's official web portal to all federal, state and local government web resources and services.